This demonstration page uses our WeatherBlox Daily Observations layout. Learn more.

Left ArrowRight Arrow

34.16533, -84.80231

Hourly Observations for July 30, 2020

Temp ( °F °C ) Dew Point ( °F °C ) Humidity (%) Winds ( mph kmh ) Pressure ( in mb ) Visibility ( mi km ) Precip ( " mm )
12:53 am 00:53 Cloudy 79 26.1 73 22.8 82 82 Calm 29.98 1015 10 16 0.00 0.00
1:53 am 01:53 Mostly Cloudy 76 24.4 73 22.8 91 91 Calm 29.96 1015 10 16 0.00 0.00
2:38 am 02:38 Mostly Cloudy 77 25 73 22.8 88 88 Calm 29.96 1015 10 16 0.00 0.00
2:53 am 02:53 Mostly Cloudy 76 24.4 73 22.8 91 91 Calm 29.94 1014 10 16 0.00 0.00
3:53 am 03:53 Mostly Cloudy 77 25 73 22.8 88 88 SSW 3 6 29.94 1014 10 16 0.00 0.00
4:29 am 04:29 Cloudy 77 25 73 22.8 88 88 Calm 29.95 1014 10 16 0.00 0.00
4:32 am 04:32 Cloudy 77 25 73 22.8 88 88 VRB 3 6 29.95 1014 10 16 0.00 0.00
4:53 am 04:53 Cloudy 77 25 73 22.8 88 88 Calm 29.94 1014 10 16 0.00 0.00
5:07 am 05:07 Cloudy 77 25 73 22.8 88 88 Calm 29.95 1014 10 16 0.00 0.00
5:16 am 05:16 Cloudy 77 25 73 22.8 88 88 Calm 29.95 1014 10 16 0.00 0.00
5:53 am 05:53 Cloudy 77 25 73 22.8 88 88 Calm 29.94 1014 10 16 0.00 0.00
6:22 am 06:22 Cloudy 77 25 73 22.8 88 88 Calm 29.96 1015 10 16 0.00 0.00
6:36 am 06:36 Cloudy 77 25 73 22.8 88 88 VRB 3 6 29.96 1015 10 16 0.00 0.00
6:51 am 06:51 Cloudy 77 25 73 23 89 89 Calm 29.96 1015 10 16 0.00 0.00
6:53 am 06:53 Cloudy 77 25 73 22.8 88 88 Calm 29.94 1014 10 16 0.00 0.00
7:42 am 07:42 Cloudy 77 25 73 22.8 88 88 Calm 29.96 1015 10 16 0.00 0.00
7:53 am 07:53 Partly Cloudy 77 25 73 22.8 88 88 Calm 29.96 1014 10 16 0.00 0.00
8:18 am 08:18 Partly Cloudy 78 25.6 73 22.8 85 85 Calm 29.98 1015 10 16 0.00 0.00
8:34 am 08:34 Mostly Cloudy 78 25.6 73 22.8 85 85 VRB 3 6 29.99 1016 10 16 0.00 0.00
8:38 am 08:38 Mostly Cloudy 78 25.6 73 22.8 85 85 VRB 3 6 29.99 1016 10 16 0.00 0.00
8:46 am 08:46 Cloudy 78 25.6 73 22.8 85 85 Calm 29.99 1016 10 16 0.00 0.00
8:53 am 08:53 Cloudy 78 25.6 73 22.8 85 85 Calm 29.98 1015 10 16 0.00 0.00
9:53 am 09:53 Cloudy 79 26.1 73 22.8 82 82 VRB 3 6 29.98 1015 10 16 0.00 0.00
10:05 am 10:05 Cloudy 80 26.7 72 22.2 76 76 VRB 3 6 29.99 1015 10 16 0.00 0.00
10:53 am 10:53 Cloudy 81 27.2 73 22.8 77 77 VRB 3 6 29.98 1015 10 16 0.00 0.00
11:53 am 11:53 Cloudy 83 28.3 73 22.8 72 72 VRB 5 7 29.98 1015 10 16 0.00 0.00
12:53 pm 12:53 Partly Cloudy 87 30.6 74 23.3 65 65 undefined N/A 29.96 1015 10 16 0.00 0.00
1:03 pm 13:03 Mostly Cloudy 86 30 73 22.8 65 65 undefined N/A 29.96 1014 10 16 0.00 0.00
1:13 pm 13:13 Partly Cloudy 87 30.6 73 22.8 63 63 VRB 6 9 29.95 1014 10 16 0.00 0.00
1:53 pm 13:53 Mostly Sunny 89 31.7 73 22.8 59 59 VRB 6 9 29.93 1014 10 16 0.00 0.00
2:53 pm 14:53 Mostly Cloudy 90 32.2 73 22.8 58 58 SW 8 13 29.91 1013 10 16 0.00 0.00
3:53 pm 15:53 Mostly Cloudy 89 31.7 72 22.2 57 57 SSW 8 13 29.88 1012 10 16 0.00 0.00
4:53 pm 16:53 Mostly Cloudy with Light Rain 90 32.2 73 22.8 58 58 VRB 6 9 29.88 1012 10 16 0.00 0.00
5:53 pm 17:53 Cloudy 89 31.7 71 21.7 55 55 VRB 3 6 29.88 1012 10 16 0.00 0.00
6:53 pm 18:53 Partly Cloudy 89 31.7 71 21.7 55 55 VRB 3 6 29.87 1012 10 16 0.00 0.00
7:53 pm 19:53 Mostly Sunny 88 31.1 71 21.7 57 57 VRB 6 9 29.89 1012 10 16 0.00 0.00
8:53 pm 20:53 Clear 82 27.8 72 22.2 72 72 VRB 6 9 29.91 1013 10 16 0.00 0.00
9:53 pm 21:53 Clear 80 26.7 71 21.7 74 74 VRB 5 7 29.91 1013 10 16 0.00 0.00
10:53 pm 22:53 Clear 79 26.1 71 21.7 77 77 Calm 29.91 1013 10 16 0.00 0.00
11:53 pm 23:53 Clear 78 25.6 72 22.2 82 82 Calm 29.90 1013 10 16 0.00 0.00

Powered by AerisWeather